ROT201N LROP-LUKK

Flight info

Callsign ROT201N
Flight time 0h 38m
Altitude 23000
Route DENAK1K/08L DENAK DCT KODRU T34 LIPTA
Aircraft B737/M-VGDW/C

Departure

Time 2026-05-09 09:26
Airport Bucharest Henri Coandă International Airport (LROP)

Arrival

Time 2026-05-09 10:04
Airport Chişinău International Airport (LUKK)
Time Latitude Longitude Altitude Speed Heading
2026-05-09 08:52 44.56884 26.08191 317 ft 0 kts 355°
2026-05-09 09:21 44.56912 26.08188 317 ft 7 kts 355°
2026-05-09 09:21 44.56946 26.08224 315 ft 8 kts 82°
2026-05-09 09:21 44.56950 26.08306 314 ft 8 kts 84°
2026-05-09 09:21 44.56978 26.08382 313 ft 9 kts 22°
2026-05-09 09:22 44.57058 26.08379 313 ft 13 kts 354°
2026-05-09 09:22 44.57149 26.08369 314 ft 11 kts 356°
2026-05-09 09:22 44.57218 26.08379 315 ft 8 kts 38°
2026-05-09 09:22 44.57232 26.08449 315 ft 7 kts 85°
2026-05-09 09:23 44.57260 26.08499 314 ft 6 kts
2026-05-09 09:23 44.57299 26.08493 314 ft 4 kts 353°
2026-05-09 09:23 44.57329 26.08488 314 ft 6 kts 353°
2026-05-09 09:23 44.57409 26.08474 314 ft 12 kts 354°
2026-05-09 09:24 44.57493 26.08462 314 ft 11 kts 354°
2026-05-09 09:24 44.57513 26.08459 314 ft 0 kts 354°
2026-05-09 09:24 44.57536 26.08456 314 ft 10 kts 353°
2026-05-09 09:25 44.57619 26.08443 314 ft 11 kts
2026-05-09 09:25 44.57671 26.08508 314 ft 10 kts 77°
2026-05-09 09:25 44.57701 26.08866 314 ft 79 kts 82°
2026-05-09 09:25 44.57787 26.10000 418 ft 145 kts 82°
2026-05-09 09:26 44.57879 26.11388 1259 ft 154 kts 82°
2026-05-09 09:26 44.57992 26.12984 1929 ft 180 kts 82°
2026-05-09 09:26 44.58121 26.14820 2633 ft 202 kts 84°
2026-05-09 09:26 44.58266 26.16851 3421 ft 222 kts 84°
2026-05-09 09:27 44.58422 26.19011 4559 ft 227 kts 85°
2026-05-09 09:27 44.58660 26.21173 5692 ft 232 kts 73°
2026-05-09 09:27 44.59587 26.23000 6738 ft 243 kts 38°
2026-05-09 09:27 44.61169 26.23841 7818 ft 251 kts 13°
2026-05-09 09:28 44.62841 26.24450 8850 ft 255 kts 20°
2026-05-09 09:28 44.64498 26.25279 9868 ft 259 kts 21°
2026-05-09 09:28 44.66173 26.26120 10874 ft 262 kts 20°
2026-05-09 09:28 44.67897 26.26988 11864 ft 266 kts 20°
2026-05-09 09:29 44.69614 26.27869 12827 ft 270 kts 22°
2026-05-09 09:29 44.71191 26.29222 13734 ft 272 kts 43°
2026-05-09 09:29 44.72561 26.31041 14649 ft 276 kts 43°
2026-05-09 09:29 44.74025 26.32802 15529 ft 281 kts 40°
2026-05-09 09:30 44.75528 26.34527 16361 ft 286 kts 40°
2026-05-09 09:30 44.77122 26.36369 16824 ft 306 kts 40°
2026-05-09 09:30 44.78839 26.38343 17094 ft 332 kts 40°
2026-05-09 09:30 44.80673 26.40439 17630 ft 349 kts 40°
2026-05-09 09:31 44.82558 26.42593 18397 ft 357 kts 40°
2026-05-09 09:31 44.84487 26.44801 19217 ft 363 kts 40°
2026-05-09 09:31 44.86459 26.47060 20029 ft 368 kts 40°
2026-05-09 09:32 44.90463 26.51650 21614 ft 378 kts 39°
2026-05-09 09:32 44.92491 26.53978 22367 ft 382 kts 39°
2026-05-09 09:32 44.94559 26.56356 23002 ft 385 kts 39°
2026-05-09 09:32 44.96640 26.58748 23073 ft 393 kts 39°
2026-05-09 09:33 44.98763 26.61191 23048 ft 388 kts 39°
2026-05-09 09:33 45.00826 26.63568 23055 ft 386 kts 39°
2026-05-09 09:33 45.02895 26.65955 23060 ft 386 kts 40°
2026-05-09 09:33 45.04973 26.68352 23062 ft 386 kts 40°
2026-05-09 09:34 45.07053 26.70756 23064 ft 387 kts 40°
2026-05-09 09:34 45.09114 26.73140 23068 ft 386 kts 40°
2026-05-09 09:34 45.11113 26.75454 23072 ft 386 kts 40°
2026-05-09 09:36 45.25309 26.91953 23074 ft 387 kts 40°
2026-05-09 09:36 45.27381 26.94370 23074 ft 387 kts 40°
2026-05-09 09:36 45.29470 26.96810 23074 ft 387 kts 40°
2026-05-09 09:37 45.31529 26.99216 23074 ft 387 kts 40°
2026-05-09 09:37 45.33598 27.01638 23074 ft 387 kts 40°
2026-05-09 09:37 45.35672 27.04067 23074 ft 387 kts 40°
2026-05-09 09:37 45.37738 27.06489 23074 ft 387 kts 40°
2026-05-09 09:38 45.39814 27.08926 23074 ft 387 kts 40°
2026-05-09 09:38 45.41898 27.11373 23074 ft 388 kts 40°
2026-05-09 09:38 45.43964 27.13802 23074 ft 388 kts 40°
2026-05-09 09:38 45.46050 27.16258 23074 ft 389 kts 40°
2026-05-09 09:39 45.48119 27.18696 23074 ft 388 kts 40°
2026-05-09 09:39 45.50188 27.21135 23074 ft 388 kts 40°
2026-05-09 09:39 45.52268 27.23591 23074 ft 388 kts 40°
2026-05-09 09:39 45.54354 27.26056 23074 ft 388 kts 40°
2026-05-09 09:40 45.56440 27.28524 23074 ft 389 kts 40°
2026-05-09 09:40 45.58514 27.30978 23074 ft 389 kts 40°
2026-05-09 09:40 45.60585 27.33434 23074 ft 389 kts 40°
2026-05-09 09:40 45.62657 27.35891 23074 ft 389 kts 40°
2026-05-09 09:41 45.64713 27.38334 23074 ft 389 kts 40°
2026-05-09 09:41 45.66783 27.40794 23074 ft 389 kts 40°
2026-05-09 09:41 45.68879 27.43287 23074 ft 389 kts 40°
2026-05-09 09:41 45.70946 27.45750 23074 ft 389 kts 40°
2026-05-09 09:42 45.73002 27.48201 23074 ft 389 kts 40°
2026-05-09 09:42 45.75068 27.50667 23074 ft 389 kts 40°
2026-05-09 09:42 45.77147 27.53151 23074 ft 389 kts 40°
2026-05-09 09:42 45.79205 27.55612 23074 ft 389 kts 40°
2026-05-09 09:43 45.81280 27.58096 23074 ft 389 kts 40°
2026-05-09 09:43 45.83355 27.60582 23074 ft 389 kts 40°
2026-05-09 09:43 45.85429 27.63070 23074 ft 389 kts 40°
2026-05-09 09:43 45.87487 27.65542 22925 ft 392 kts 41°
2026-05-09 09:44 45.89597 27.68077 22415 ft 393 kts 41°
2026-05-09 09:44 45.91687 27.70591 21912 ft 390 kts 41°
2026-05-09 09:44 45.93733 27.73054 21417 ft 387 kts 41°
2026-05-09 09:44 45.95796 27.75542 20867 ft 385 kts 41°
2026-05-09 09:45 45.97821 27.77986 20326 ft 387 kts 41°
2026-05-09 09:45 45.99916 27.80518 19785 ft 401 kts 41°
2026-05-09 09:45 46.02063 27.83115 19236 ft 410 kts 41°
2026-05-09 09:45 46.04317 27.85845 18684 ft 432 kts 41°
2026-05-09 09:46 46.06604 27.88616 18128 ft 434 kts 41°
2026-05-09 09:46 46.08879 27.91372 17577 ft 428 kts 41°
2026-05-09 09:46 46.11152 27.94130 17019 ft 422 kts 41°
2026-05-09 09:46 46.13359 27.96814 16473 ft 418 kts 41°
2026-05-09 09:47 46.15580 27.99516 15919 ft 415 kts 41°
2026-05-09 09:47 46.17784 28.02202 15366 ft 413 kts 41°
2026-05-09 09:47 46.19931 28.04821 14822 ft 410 kts 41°
2026-05-09 09:47 46.22094 28.07462 14271 ft 406 kts 41°
2026-05-09 09:48 46.24257 28.10105 13715 ft 403 kts 41°
2026-05-09 09:48 46.26353 28.12670 13200 ft 399 kts 41°
2026-05-09 09:48 46.28442 28.15229 13085 ft 393 kts 41°
2026-05-09 09:48 46.30555 28.17820 13030 ft 401 kts 41°
2026-05-09 09:49 46.32686 28.20438 12537 ft 400 kts 41°
2026-05-09 09:49 46.34788 28.23019 12038 ft 392 kts 41°
2026-05-09 09:49 46.36829 28.25529 11542 ft 384 kts 41°
2026-05-09 09:49 46.38845 28.28011 11054 ft 377 kts 41°
2026-05-09 09:50 46.40801 28.30420 10626 ft 369 kts 41°
2026-05-09 09:50 46.42710 28.32776 10120 ft 349 kts 41°
2026-05-09 09:50 46.44502 28.34986 9742 ft 325 kts 41°
2026-05-09 09:50 46.46159 28.37034 9368 ft 305 kts 41°
2026-05-09 09:51 46.47725 28.38971 9082 ft 285 kts 41°
2026-05-09 09:51 46.49142 28.40725 9090 ft 257 kts 41°
2026-05-09 09:51 46.50440 28.42332 9101 ft 236 kts 42°
2026-05-09 09:51 46.51673 28.43864 9101 ft 231 kts 42°
2026-05-09 09:52 46.52889 28.45373 9090 ft 233 kts 42°
2026-05-09 09:52 46.54115 28.46896 9073 ft 234 kts 41°
2026-05-09 09:52 46.55360 28.48442 9074 ft 232 kts 42°
2026-05-09 09:52 46.56580 28.49958 9076 ft 232 kts 42°
2026-05-09 09:53 46.57818 28.51497 9074 ft 232 kts 42°
2026-05-09 09:53 46.59042 28.53020 9075 ft 233 kts 42°
2026-05-09 09:53 46.60268 28.54547 9075 ft 234 kts 42°
2026-05-09 09:53 46.61509 28.56064 8953 ft 237 kts 37°
2026-05-09 09:54 46.63042 28.56970 8539 ft 244 kts
2026-05-09 09:54 46.64685 28.56434 8060 ft 251 kts 333°
2026-05-09 09:54 46.66251 28.55245 7571 ft 259 kts 335°
2026-05-09 09:54 46.67940 28.54189 7101 ft 264 kts 337°
2026-05-09 09:55 46.69605 28.53148 6718 ft 257 kts 336°
2026-05-09 09:55 46.71194 28.52145 6343 ft 248 kts 337°
2026-05-09 09:55 46.72785 28.51310 5960 ft 241 kts 351°
2026-05-09 09:55 46.74393 28.51397 5586 ft 230 kts 18°
2026-05-09 09:56 46.75854 28.52233 5275 ft 223 kts 24°
2026-05-09 09:56 46.77285 28.53090 4978 ft 221 kts 23°
2026-05-09 09:56 46.78701 28.53936 4694 ft 220 kts 24°
2026-05-09 09:56 46.80097 28.54777 4422 ft 220 kts 24°
2026-05-09 09:57 46.81517 28.55632 4142 ft 219 kts 24°
2026-05-09 09:57 46.82911 28.56474 3849 ft 220 kts 24°
2026-05-09 09:57 46.84347 28.57340 3466 ft 224 kts 24°
2026-05-09 09:57 46.85778 28.58206 3097 ft 228 kts 24°
2026-05-09 09:58 46.87210 28.59072 2734 ft 231 kts 24°
2026-05-09 09:58 46.88694 28.59970 2479 ft 228 kts 24°
2026-05-09 09:58 46.90118 28.60832 2490 ft 212 kts 23°
2026-05-09 09:58 46.91380 28.61757 2489 ft 200 kts 41°
2026-05-09 09:59 46.92135 28.63410 2494 ft 194 kts 77°
2026-05-09 09:59 46.92180 28.65304 2501 ft 179 kts 92°
2026-05-09 09:59 46.92218 28.67022 2498 ft 156 kts 90°
2026-05-09 09:59 46.92247 28.68480 2491 ft 136 kts 90°
2026-05-09 10:00 46.92279 28.69880 2498 ft 136 kts 90°
2026-05-09 10:00 46.92310 28.71245 2491 ft 133 kts 88°
2026-05-09 10:00 46.92339 28.72605 2490 ft 133 kts 88°
2026-05-09 10:00 46.92368 28.73972 2487 ft 133 kts 87°
2026-05-09 10:01 46.92397 28.75341 2435 ft 136 kts 90°
2026-05-09 10:01 46.92430 28.76726 2228 ft 135 kts 90°
2026-05-09 10:01 46.92461 28.78090 2060 ft 134 kts 90°
2026-05-09 10:01 46.92489 28.79459 1881 ft 134 kts 88°
2026-05-09 10:02 46.92519 28.80808 1701 ft 132 kts 88°
2026-05-09 10:02 46.92549 28.82148 1521 ft 132 kts 89°
2026-05-09 10:02 46.92577 28.83477 1343 ft 131 kts 89°
2026-05-09 10:02 46.92607 28.84818 1165 ft 131 kts 89°
2026-05-09 10:03 46.92633 28.86164 987 ft 131 kts 88°
2026-05-09 10:03 46.92672 28.87485 798 ft 126 kts 88°
2026-05-09 10:03 46.92692 28.88791 696 ft 132 kts 86°
2026-05-09 10:03 46.92720 28.90118 489 ft 130 kts 88°
2026-05-09 10:04 46.92747 28.91432 340 ft 120 kts 90°
2026-05-09 10:04 46.92764 28.92336 334 ft 52 kts 93°
2026-05-09 10:04 46.92773 28.92809 334 ft 42 kts 86°
2026-05-09 10:04 46.92781 28.93182 334 ft 27 kts 89°
2026-05-09 10:05 46.92790 28.93351 334 ft 13 kts 72°
2026-05-09 10:05 46.92871 28.93414 334 ft 5 kts
2026-05-09 10:06 46.92873 28.93414 334 ft 1 kts
2026-05-09 10:07 46.92968 28.93411 334 ft 22 kts
2026-05-09 10:07 46.93125 28.93438 334 ft 22 kts 10°
2026-05-09 10:07 46.93263 28.93457 334 ft 18 kts
2026-05-09 10:07 46.93322 28.93523 334 ft 2 kts 50°
2026-05-09 10:08 46.93350 28.93539 334 ft 6 kts
2026-05-09 10:08 46.93368 28.93543 334 ft 0 kts